Location: Contre
(49.7477°N, 2.0963°E)
Time: 00:27:36
(UTC+00:00)

Envisat - Pass Details

Date: 02 March 2024
Orbit: 762 x 764 km, 98.3° (Epoch: 12 April)

Event Time Altitude Azimuth Distance (km) Brightness Sun altitude
Rises 04:41:59 0° 5° (N) 3,243 6.5 -18.5°
Reaches altitude 10° 04:44:37 10° 353° (N) 2,312 5.5 -18.1°
Maximum altitude 04:48:44 26° 299° (WNW) 1,492 4.1 -17.4°
Enters shadow 04:49:09 25° 291° (WNW) 1,502 4.0 -17.4°
